Location: Unspecified
(0.0000°N, 0.0000°E)
Time: 02:42:49
(UTC+00:00)

Vanguard 1 Rocket - All Passes

Search period start: 30 March 2017 00:00
Search period end: 09 April 2017 00:00
Orbit: 649 x 4228 km, 34.3° (Epoch: 26 March)

Date Brightness Start Highest point End Pass type
(mag) Time Alt. Az. Time Alt. Az. Time Alt. Az.
30 Mar - 07:14:10 10° SW 07:18:34 47° SE 07:24:59 10° ENE daylight
30 Mar - 09:39:16 10° W 09:44:46 28° NNW 09:53:45 10° NNE daylight
30 Mar - 12:10:19 10° NNW 12:16:33 14° N 12:24:44 10° NNE daylight
30 Mar - 14:40:48 10° NNW 14:54:41 21° NNE 15:11:56 10° ENE daylight
30 Mar - 17:09:09 10° NW 17:32:47 47° NNE 17:54:29 10° E daylight
30 Mar - 19:40:22 10° NW 20:07:05 84° SW 20:24:30 10° SE visible
30 Mar - 22:19:36 10° W 22:37:27 31° SW 22:48:34 10° SSE visible
31 Mar - 06:05:02 10° S 06:07:58 17° SE 06:11:14 10° E daylight
31 Mar - 08:27:56 10° WSW 08:32:50 46° NNW 08:40:56 10° NE daylight
31 Mar - 10:56:51 10° NW 11:02:01 15° N 11:09:03 10° NNE daylight
31 Mar - 13:28:34 10° NNW 13:37:32 16° NNE 13:49:05 10° NE daylight
31 Mar - 15:56:18 10° NNW 16:16:07 34° NNE 16:37:50 10° E daylight
31 Mar - 18:25:27 10° NW 18:51:54 74° NE 19:12:13 10° ESE visible
31 Mar - 21:00:22 10° WNW 21:23:59 50° SW 21:38:30 10° SSE visible
31 Mar - 23:48:41 10° SW 23:54:16 12° SW 23:58:51 10° SSW visible
01 Apr - 07:17:18 10° SW 07:21:47 82° SE 07:28:23 10° NE daylight
01 Apr - 09:43:59 10° WNW 09:48:45 19° NNW 09:55:40 10° NNE daylight
01 Apr - 12:16:22 10° NNW 12:21:22 12° N 12:27:28 10° NNE daylight
01 Apr - 14:44:08 10° NNW 14:59:13 24° NNE 15:18:02 10° ENE daylight
01 Apr - 17:11:44 10° NW 17:35:59 56° NE 17:58:28 10° ESE daylight
01 Apr - 19:43:21 10° WNW 20:09:45 71° SW 20:27:30 10° SE visible
01 Apr - 22:24:47 10° W 22:40:38 25° SW 22:51:08 10° SSE visible
02 Apr - 06:07:21 10° SSW 06:11:13 29° SE 06:15:39 10° E daylight
02 Apr - 08:31:58 10° W 08:36:30 29° NNW 08:43:20 10° NNE daylight
02 Apr - 11:03:24 10° NNW 11:06:29 11° N 11:10:07 10° NNE daylight
02 Apr - 13:32:38 10° NNW 13:42:26 17° NNE 13:55:06 10° NE daylight
02 Apr - 15:59:01 10° NNW 16:19:42 40° NNE 16:42:35 10° E daylight
02 Apr - 18:28:08 10° NW 18:54:39 86° NE 19:15:28 10° SE visible
02 Apr - 21:04:23 10° WNW 21:26:48 41° SW 21:41:14 10° SSE visible
03 Apr - 04:59:00 10° SSE 05:00:13 11° SSE 05:01:25 10° SE visible
03 Apr - 07:20:46 10° WSW 07:25:09 57° NNW 07:31:24 10° NE daylight
03 Apr - 09:49:37 10° NW 09:52:53 13° NNW 09:56:57 10° NNE daylight
03 Apr - 12:22:03 10° N 12:26:15 11° N 12:31:10 10° NNE daylight
03 Apr - 14:47:09 10° NNW 15:03:20 28° NNE 15:23:47 10° E daylight
03 Apr - 17:14:21 10° NW 17:38:55 66° NE 18:02:07 10° ESE daylight
03 Apr - 19:46:38 10° WNW 20:12:25 60° SW 20:30:21 10° SE visible
03 Apr - 22:30:40 10° WSW 22:44:09 20° SW 22:53:38 10° S visible
04 Apr - 06:10:11 10° SW 06:14:28 54° SE 06:19:27 10° ENE daylight
04 Apr - 08:36:36 10° WNW 08:40:19 18° NNW 08:45:20 10° NNE daylight
04 Apr - 13:36:04 10° NNW 13:47:02 19° NNE 14:01:33 10° ENE daylight
04 Apr - 16:01:41 10° NW 16:22:56 48° NE 16:46:53 10° ESE daylight
04 Apr - 18:31:01 10° NW 18:57:19 82° SW 19:18:30 10° SE visible
04 Apr - 21:08:57 10° W 21:29:51 34° SW 21:43:55 10° SSE visible
05 Apr - 05:00:14 10° SSW 05:03:43 20° SSE 05:06:59 10° E visible
05 Apr - 07:24:36 10° W 07:28:39 32° NNW 07:34:05 10° NNE daylight
05 Apr - 12:26:26 10° N 12:31:06 12° NNE 12:36:36 10° NE daylight
05 Apr - 14:49:57 10° NNW 15:07:01 34° NNE 15:29:04 10° E daylight
05 Apr - 17:17:04 10° NW 17:41:40 77° NE 18:05:27 10° ESE daylight
05 Apr - 19:50:17 10° WNW 20:15:10 50° SW 20:33:08 10° SSE visible
05 Apr - 22:37:14 10° WSW 22:48:02 16° SSW 22:56:09 10° S visible
06 Apr - 06:13:23 10° WSW 06:17:47 80° NW 06:22:48 10° NE daylight
06 Apr - 08:42:34 10° NW 08:44:17 11° NNW 08:46:10 10° N daylight
06 Apr - 13:39:05 10° NNW 13:51:17 22° NNE 14:07:55 10° ENE daylight
06 Apr - 16:04:22 10° NW 16:25:53 57° NE 16:50:45 10° ESE daylight
06 Apr - 18:34:09 10° WNW 18:59:57 70° SW 19:21:23 10° SE visible
06 Apr - 21:14:07 10° W 21:33:13 28° SW 21:46:36 10° SSE visible
07 Apr - 05:02:41 10° SSW 05:07:08 36° SE 05:11:12 10° ENE visible
07 Apr - 07:29:01 10° WNW 07:32:17 19° NNW 07:36:17 10° NNE daylight
07 Apr - 12:29:37 10° N 12:35:46 13° NNE 12:43:22 10° NE daylight
07 Apr - 14:52:39 10° NNW 15:10:20 40° NE 15:33:47 10° E daylight
07 Apr - 17:19:55 10° NW 17:44:18 89° NE 18:08:33 10° SE daylight
07 Apr - 19:54:23 10° W 20:18:07 42° SW 20:35:50 10° SSE visible
07 Apr - 22:44:14 10° SW 22:52:18 13° SSW 22:58:45 10° S visible
08 Apr - 03:52:27 10° SSW 03:55:55 16° SSE 03:58:52 10° ESE visible
08 Apr - 06:16:57 10° WSW 06:21:09 42° NW 06:25:47 10° NE daylight
08 Apr - 13:41:51 10° NNW 13:55:07 26° NNE 14:13:49 10° E daylight
08 Apr - 16:07:05 10° NW 16:28:38 67° NE 16:54:15 10° ESE daylight
08 Apr - 18:37:34 10° WNW 19:02:40 59° SW 19:24:09 10° SE visible
08 Apr - 21:19:52 10° WSW 21:36:57 23° SSW 21:49:21 10° SSE visible
